STARLINK-2095 (47679 NORAD) Tracking and Keplerian Element Data
This shows tracking and keplerian element data for the satellite.
Feedback or suggestion? Click here.
Element | Value |
Catalog | 47679 |
Name | STARLINK-2095 |
Epoch Orbit | 175 |
Epoch Day | 105.91667824 |
Epoch Year | 2021 |
RAAN | 181.6828 |
Inclination | 53.0594 |
Eccentricity | 0.0001528 |
Argument of Perigee | 81.9495 |
Mean Anonmoly | 305.281 |
Mean Motion | 15.06409365 |
Decay Rate | -0.0002538 |
L1 | 1 47679U 21012BM 21105.91667824 -.00025380 00000-0 -16906-2 0 9995 |
L2 | 2 47679 53.0594 181.6828 0001528 81.9495 305.2810 15.06409365 1758 |
Live tracking and technical data element details for STARLINK-2095 (NORAD 47679). STARLINK-2095 can be tracked NOW for your location showing map with azimuth and elevation plus other details from your city location.
Track the satellite on the map from your city or location and see movement details for azimuth, elevation, latitude, longitude, range, height, and movement on the map or in text.
IsCatalogInMostPopularTable: catalog: 47679, numindb: 29
Update: records affected: 1
GetName: 47679 STARLINK-2095
Hit Count: updated at: Fri, 16 Apr 2021 10:33:41 GMT